Location: Asheville, NC
(35.6000°N, 82.5500°W)
Time: 09:25:18
(UTC-05:00)

Vanguard 1 - Pass Details

Date: 14 December 2017
Orbit: 649 x 3834 km, 34.2° (Epoch: 21 January)

Event Time Altitude Azimuth Distance (km) Brightness Sun altitude
Rises 05:48:53 0° 196° (SSW) 7,482 14.6 -20.3°
Reaches altitude 10° 05:55:15 10° 185° (S) 6,740 14.4 -19.0°
Maximum altitude 06:12:20 27° 137° (SE) 5,544 14.5 -15.7°
Drops below altitude 10° 06:27:46 10° 90° (E) 6,189 15.3 -12.7°
Sets 06:33:03 0° 79° (E) 6,809 15.4 -11.7°
